STARLINK-36181, 68047

Orbit data source: Space-Track

STARLINK-36181, 68047 is a payload satellite owned by SpaceX/Seattle (US) in LEO that was launched on Mon, 02 Mar 2026 UTC via an FALCON 9 launch vehicle from the Air Force Eastern Test Range (AFETR). Payload-class satellites include a variety of spacecraft equipped with specific instruments for various scientific and technological missions. These include communications satellites like Starlink; space stations such as the ISS; scientific satellites like the Hubble; Earth observation satellites from companies like Planet Labs, Umbra, and HawkEye 360; GPS; miniature CubeSats for education and research; and military/defense satellites.

Loading next visibility...
Identifier
68047, 2026-041H
Orbit
LEO
Country
Flag of USUS
Related business
Manufacturer
SpaceX/Seattle
Mission
Operational Commercial Communications
Bus & Motor
STARLINK V2MO, Unknown motor
Mass
575 kg wet, ~530 kg dry
Launch date (UTC)
2026-03-02 (2 months ago)
Launch vehicle
FALCON 9
Launch site
Air Force Eastern Test Range (AFETR)
Object type
Payload
Rocket body
Debris
Shape & HBR
Box + 2 Pan, 17.7 m
Radar Cross Section
36.964 m²

Expand to show TLE details & history
Last TLE update: 6 hours ago

TLE from 6 hours ago
0 STARLINK-36181
1 68047U 26041H   26119.16668980  .00018968  00000-0  63444-3 0  9997
2 68047  53.1599 175.3927 0001166  92.5327  20.6004 15.31031127  5994
Epoch: 2026-04-29T04:00Z
TLE epoch observation values (Epoch: 2026-04-29T04:00:01.998Z)
Latitude
47.53222°
Longitude
23.76499°
Altitude
477.244 km
Speed
7.633 km/s
True Right ascension
20h 03m 37s
True Declination
47° 21' 14"
Sunlit
Object was in daylight at epoch
Visualization orbit readout
Latitude
Unknown
Longitude
Unknown
Altitude
Unknown
Speed
Unknown
Apparent Right ascension
Unknown
Apparent Declination
Unknown
Sunlit
N/A
Visualization observer readout
Local Sidereal Time
17:07:59
Azimuth
Unknown
Elevation
Unknown
Doppler factor
Unknown
Orbital elements
Apogee altitude
473.79 km
Perigee altitude
472.192 km
Semi-major axis
6,851.128 km
Eccentricity
0.00012
Inclination
53.1599°
RAAN
175.3927°
Arg. of periapsis
92.5327°
True anomaly
20.6051°
Mean anomaly
20.6004°
Eccentric anomaly
20.60275°
Mean motion
3.82737 °/min
Orbital period
94.06 mins
BSTAR
0.00063444
Loading maneuver chart data...
Computing Atmospheric mass density...
Loading historical data...
Loading historical data...
Loading historical data...
Loading historical data...
Loading historical data...
Loading historical data...
Loading historical data...

Documentation

Showing up to 5 results
|